Regional Weather Roundup
Issued by NWS

Home | Current Version | Previous Version | Text Only | Print | Product List | Glossary On
Versions: 1 2 3 4 5 6 7 8 9 10 11 12 13 14 15 16 17 18 19 20 21 22 23 24 25 26 27
000
ASUS45 KTFX 240610
RWRMT
MONTANA REGIONAL WEATHER ROUNDUP
NATIONAL WEATHER SERVICE GREAT FALLS MT
1200 AM MDT THU MAY 24 2018

NOTE: "FAIR" INDICATES FEW OR NO CLOUDS BELOW 12000 FEET WITH NO
SIGNIFICANT WEATHER AND/OR OBSTRUCTIONS TO VISIBILITY.

MTZ001>007-043-240700-
WEST OF THE DIVIDE

CITY           SKY/WX    TMP DP  RH WIND       PRES   REMARKS
MISSOULA       LGT RAIN  58  55  90 S5        29.90R
BUTTE          CLOUDY    53  49  86 CALM      29.99S
MULLAN PASS    FOG       47  47 100 S7        29.95F VSB 3/4
ANACONDA         N/A     54  48  82 S5        29.95S
DEER LODGE       N/A     55  52  88 S6        29.95R
HAMILTON         N/A     57  52  82 MISG      29.92S
PLAINS           N/A     59  54  83 CALM      29.88F
RONAN            N/A     59  55  88 NE5       29.87S
$$

MTZ008-052>055-240700-
SOUTHWEST MONTANA

CITY           SKY/WX    TMP DP  RH WIND       PRES   REMARKS
BOZEMAN        FAIR      49  47  93 SE9       29.95S
DILLON         MOCLDY    51  47  86 S6        29.99S
ENNIS          CLOUDY    52  48  87 S9        30.03S
W YELLOWSTONE  MOCLDY    45  45 100 CALM      30.07S
TWIN BRIDGES     N/A     48  43  83 N3        29.97R
$$

MTZ009-010-012-014-046-048-049-054-240700-
EAST SLOPES AND CENTRAL MONTANA

CITY           SKY/WX    TMP DP  RH WIND       PRES   REMARKS
CUT BANK       FAIR      56  49  77 SE6       29.83F
GREAT FALLS    FAIR      54  47  77 S8        29.86F
MALMSTROM AFB  FAIR      51  47  88 S9        29.86S
HELENA         FAIR      53  50  89 N3        29.89F
AUGUSTA        MOCLDY    53  47  81 W5        29.88F
BOWMANS CRNR   FAIR      53  46  78 S3        29.86F
CHOTEAU          N/A     54  48  82 W5        29.87F
FAIRFIELD      FAIR      54  48  78 S8        29.85F
POWER          FAIR      53  47  79 CALM      29.85F
RAYNESFORD     FAIR      51  49  92 NE6       29.89R
ULM            FAIR      51  49  93 SE9       29.86F
WHITE SULPHUR    N/A     50  46  87 SE9       29.93R
$$

MTZ011-013-016-021-045-047-050-051-240700-
NORTH CENTRAL MONTANA

CITY           SKY/WX    TMP DP  RH WIND       PRES   REMARKS
HAVRE          FAIR      57  53  86 S5        29.81F
LEWISTOWN      CLOUDY    51  50  96 S3        29.89R
N BAR RANCH    MOCLDY    50  48  93 SW9       29.91S
CHINOOK          N/A     59  55  88 CALM      29.81F
DENTON         FAIR      54  52  92 SW7       29.83F
GEYSER         FAIR      50  49  98 SW8       29.88S
GRASS RANGE    MOCLDY    53  51  94 W5        29.84F
JUDITH GAP     MOCLDY    52  49  92 S7        29.90F
ROY            FAIR      53  52  95 W8        29.84F
STANFORD       FAIR      50  49  93 W5        29.89S
WINIFRED       MOCLDY    53  51  94 S5        29.85F
$$

MTZ017>020-022>027-061-062-240700-
NORTHEAST MONTANA

CITY           SKY/WX    TMP DP  RH WIND       PRES   REMARKS
GLASGOW        MOCLDY    60  57  89 N6        29.79S
GLENDIVE       FAIR      57  53  86 E5        29.81S
JORDAN           N/A     58  56  93 W5        29.82R
MALTA          CLOUDY    57  57 100 CALM      29.79S
SIDNEY         FAIR      58  55  90 SW6       29.82R
WOLF POINT     FAIR      59  58  96 CALM      29.78S FOG
PLENTYWOOD       N/A     64  64 100 E15       29.79F
POPLAR           N/A     63  61  94 SE7       29.78F
SCOBEY           N/A     62  54  75 E6        29.80S
$$

MTZ028>42-056>058-240700-
SOUTHCENTRAL AND SOUTHEAST MONTANA

CITY           SKY/WX    TMP DP  RH WIND       PRES   REMARKS
BAKER          FAIR      54  52  93 CALM      29.86S
BILLINGS       CLOUDY    56  55  97 SW9       29.88S
LIVINGSTON     FAIR      54  46  74 W14       29.93R
MILES CITY     MOCLDY    57  57 100 S7        29.83R
BIG TIMBER     CLOUDY    54  48  82 SW15      29.93R
EKALAKA          N/A     57  46  66 CALM      29.87F
FORSYTH          N/A     57  57 100 S3        29.82R
HARLOWTON      MOCLDY    53  51  93 W6        29.90S
LAUREL           N/A     55  54  94 SW6       29.90S
$$

REGIONAL REPORTS...DAKOTAS

CITY           SKY/WX    TMP DP  RH WIND       PRES   REMARKS
WILLISTON      FAIR      62  57  83 SE7       29.81F
MINOT          FAIR      68  64  87 E7        29.81S
DICKINSON      FAIR      63  59  87 CALM      29.82F
BEACH          FAIR      55  55 100 SW9       29.86F
CROSBY         FAIR      59  59 100 E5        29.81F FOG
TIOGA          RAIN      59  59 100 SW14      29.87R
WATFORD CITY   FAIR      59  59 100 VRB5      29.82F
BISMARCK       FAIR      67  63  87 S5        29.83F
GRAND FORKS    FAIR      69  61  75 SE10      29.90S
FARGO          FAIR      71  63  75 SE15      29.91S
BUFFALO SD       N/A     61  55  81 SE8       29.79R
RAPID CITY     FAIR      61  46  57 W8        29.90R
$$

REGIONAL REPORTS...WYOMING/IDAHO/WASHINGTON

CITY           SKY/WX    TMP DP  RH WIND       PRES   REMARKS
GILLETTE       FAIR      55  47  74 S21       29.89F
SHERIDAN       MOCLDY    57  53  86 W5        29.90R
BUFFALO WY     FAIR      59  47  64 NW12      29.94R
CODY           MOCLDY    57  41  55 VRB7G16   29.97
YELLOWSTONE LA   N/A     37  35  92 CALM      30.16S
IDAHO FALLS    CLOUDY    53  52  96 E3        30.03S
SALMON         CLOUDY    57  52  83 CALM      29.98S
BOISE          FAIR      63  58  83 SE5       29.90F
SPOKANE        MOCLDY    63  54  72 SW7       29.82F
$$

REGIONAL REPORTS...ALBERTA

CITY           SKY/WX    TMP DP  RH WIND       PRES   REMARKS
CALGARY        PTCLDY    64  39  39 CALM      29.78F
CARDSTON         N/A     55  46  71 SW5         N/A
EDMONTON       CLEAR     61  45  55 E2        29.74F
FORT MCMURRAY  CLEAR     68  43  40 SE6       29.72S
HIGH LEVEL     MOCLDY    70  50  49 NE15G22   29.65
LETHBRIDGE     CLEAR     59  48  67 S10       29.77F
LLOYDMINSTER   PTCLDY    68  45  42 SE9       29.79S
MEDICINE HAT   MOCLDY    61  52  72 SW6       29.76F
ONEFOUR          N/A     55  52  88 SE5         N/A
PEACE RIVER    PTCLDY    72  43  35 SE8       29.66F
PINCHER CREEK    N/A     52  43  71 W8        29.82S
WATERTON GATE    N/A     55  39  54 S12         N/A
$$

REGIONAL REPORTS...SASKATCHEWAN

CITY           SKY/WX    TMP DP  RH WIND       PRES   REMARKS
CORONACH         N/A     55  55 100 W2          N/A
CYPRESS HILLS    N/A     55  46  71 SW6         N/A
ESTEVAN        CLOUDY    59  57  94 E7        29.82R
MOOSE JAW        N/A     59  57  94 E6          N/A
PRINCE ALBERT  MOCLDY    70  55  60 W6        29.83S
REGINA         PTCLDY    63  59  88 NE9       29.83F
ROCKGLEN         N/A     57  57 100 NE3         N/A
SASKATOON      CLOUDY    63  57  82 S5        29.83S
SWIFT CURRENT  CLEAR     55  54  94 E8        29.81F
VAL MARIE        N/A     54  50  87 NE6         N/A
$$




USA.gov is the U.S. government's official web portal to all federal, state and local government web resources and services.